DW3195 Weather Reports


time (UTC)temp
C
wind
direction
speed
KPH
gust
KPH
rain 1hr
cm
rain 24hr
cm
rain mn
cm
humidity
%
barometer
mb
20260507224005 12 322 1.6 8.0 0.00 1.78 0.13 73 921.4
20260507221506 11 225 3.2 9.7 0.00 1.78 0.13 72 921.2
20260507221007 11 204 3.2 8.0 0.00 1.78 0.13 73 921.2
20260507220506 12 207 1.6 8.0 0.00 1.78 0.13 72 921.1
20260507220006 12 198 1.6 8.0 0.00 1.78 0.13 71 921.2
20260507214006 12 355 3.2 8.0 0.00 1.78 0.13 72 921.1
20260507213006 12 110 1.6 16.1 0.00 1.80 0.13 70 921.1
20260507211506 12 306 6.4 14.5 0.00 1.83 0.13 71 920.9
20260507211006 12 287 4.8 14.5 0.00 1.83 0.13 69 921.0
20260507210506 12 318 3.2 8.0 0.00 1.83 0.13 73 920.9
20260507210006 11 257 3.2 11.3 0.00 1.83 0.13 75 920.9
20260507204505 12 293 4.8 12.9 0.00 1.83 0.13 72 920.9
20260507204006 12 225 8.0 14.5 0.00 1.83 0.13 71 920.8
20260507203506 12 269 4.8 11.3 0.00 1.83 0.13 74 920.7
20260507203006 11 284 4.8 9.7 0.00 1.83 0.13 76 920.8
20260507201505 10 230 3.2 8.0 0.00 1.83 0.13 79 921.1
20260507201006 10 243 3.2 12.9 0.00 1.83 0.13 78 921.2
20260507200506 10 282 4.8 11.3 0.00 1.83 0.13 78 921.2
20260507194506 10 268 4.8 11.3 0.00 1.83 0.13 79 921.2
20260507194006 10 356 4.8 9.7 0.00 1.83 0.13 78 921.2
20260507193505 10 274 8.0 16.1 0.00 1.83 0.13 77 921.2
20260507193006 10 124 1.6 11.3 0.00 1.83 0.13 78 921.2
20260507191506 10 344 4.8 12.9 0.00 1.83 0.13 78 921.4
20260507191006 11 281 6.4 14.5 0.00 1.83 0.13 80 921.3
20260507190006 10 339 4.8 9.7 0.00 1.83 0.13 81 921.5
20260507184005 10 256 3.2 9.7 0.00 1.83 0.13 79 921.8
20260507183506 10 275 1.6 8.0 0.00 1.83 0.13 80 921.8
20260507183006 10 259 3.2 9.7 0.00 1.83 0.13 81 921.8
20260507181006 10 184 3.2 8.0 0.00 1.83 0.13 81 921.5
20260507180007 10 340 3.2 9.7 0.00 1.83 0.13 80 921.5
20260507174505 10 276 3.2 8.0 0.00 1.83 0.13 82 921.6
20260507174006 10 145 4.8 11.3 0.00 1.83 0.13 79 921.6
20260507173506 10 167 1.6 8.0 0.00 1.83 0.13 79 921.7
20260507173005 10 326 3.2 11.3 0.00 1.83 0.13 80 921.8
20260507171505 10 76 1.6 3.2 0.00 1.83 0.13 79 921.6
20260507171005 10 265 3.2 8.0 0.00 1.83 0.13 82 921.6
20260507170505 10 315 3.2 8.0 0.00 1.83 0.13 82 921.8
20260507170005 10 231 3.2 14.5 0.00 1.83 0.13 80 921.7
20260507164505 10 19 4.8 8.0 0.00 1.83 0.13 80 921.6
20260507164006 10 305 3.2 8.0 0.00 1.85 0.13 80 921.6
20260507163505 10 108 3.2 4.8 0.00 1.85 0.13 79 921.7
20260507161505 10 60 3.2 9.7 0.00 1.91 0.13 80 921.8
20260507161005 10 228 1.6 8.0 0.00 1.91 0.13 81 921.8
20260507160005 10 39 1.6 9.7 0.00 1.91 0.13 80 921.8
20260507154505 8 166 1.6 9.7 0.00 2.08 0.13 85 921.8
20260507154008 9 155 8.0 12.9 0.00 2.13 0.13 81 921.9
20260507153505 9 124 4.8 9.7 0.00 2.13 0.13 84 921.8
20260507153005 9 97 1.6 8.0 0.00 2.57 0.13 85 921.8
20260507150505 7 339 1.6 3.2 0.00 2.57 0.13 91 921.9
20260507150006 7 339 1.6 4.8 0.00 2.57 0.13 91 922.1
20260507144504 7 142 3.2 8.0 0.00 2.62 0.13 93 922.1
20260507144005 7 149 3.2 4.8 0.00 2.62 0.13 94 922.0
20260507143505 7 138 1.6 3.2 0.00 2.62 0.13 97 922.0
20260507143005 7 161 1.6 3.2 0.00 2.67 0.13 97 922.0
20260507141504 7 109 1.6 3.2 0.00 2.74 0.13 97 922.0
20260507141006 7 228 1.6 3.2 0.00 2.77 0.13 97 922.0
20260507140505 7 86 1.6 3.2 0.00 2.77 0.13 97 922.1
20260507140005 7 9 0.0 4.8 0.00 2.82 0.13 98 922.2
20260507134504 7 132 3.2 4.8 0.00 2.90 0.13 98 922.0
20260507134005 7 114 3.2 8.0 0.00 2.90 0.13 97 922.0
20260507133504 7 71 3.2 8.0 0.00 2.90 0.13 97 922.1
20260507133004 7 172 1.6 4.8 0.00 2.90 0.13 98 922.0
20260507131504 7 138 0.0 3.2 0.00 2.92 0.13 98 922.2
20260507131006 7 311 0.0 1.6 0.00 2.95 0.13 98 922.1
20260507130506 7 209 0.0 3.2 0.00 2.95 0.13 98 922.1
20260507130006 7 145 1.6 4.8 0.00 3.00 0.13 98 922.0
20260507124506 7 193 3.2 4.8 0.00 3.10 0.13 98 922.1
20260507124006 7 162 1.6 9.7 0.00 3.12 0.13 98 922.0
20260507123506 7 154 1.6 4.8 0.00 3.17 0.13 98 922.0
20260507123006 7 330 1.6 4.8 0.00 3.20 0.13 98 922.3
20260507121505 8 172 1.6 3.2 0.03 3.28 0.13 98 922.1
20260507121006 8 0 3.2 4.8 0.03 3.30 0.13 98 922.1
20260507120506 8 4 1.6 3.2 0.03 3.33 0.13 98 922.0
20260507120006 8 191 1.6 9.7 0.03 3.38 0.13 98 921.9
20260507114506 8 310 3.2 4.8 0.03 3.43 0.13 98 921.7
20260507114006 8 236 1.6 3.2 0.03 3.43 0.13 98 921.5
20260507113506 8 259 1.6 3.2 0.03 3.43 0.13 98 921.6
20260507113006 8 309 1.6 3.2 0.03 3.43 0.13 98 921.6
20260507111507 8 211 3.2 3.2 0.03 3.45 0.13 98 921.6
20260507111006 8 275 1.6 3.2 0.00 3.45 0.10 98 921.7
20260507110005 8 148 3.2 4.8 0.05 3.45 0.10 98 921.3
20260507104506 8 266 1.6 4.8 0.08 3.48 0.10 98 921.4
20260507104005 8 291 1.6 3.2 0.08 3.48 0.10 98 921.2
20260507103505 8 289 0.0 3.2 0.08 3.48 0.10 98 921.1
20260507103005 8 307 0.0 3.2 0.08 3.48 0.10 98 921.1
20260507101507 8 302 1.6 3.2 0.15 3.48 0.20 98 921.3
20260507101006 8 210 0.0 1.6 0.15 3.48 0.18 98 921.1
20260507100506 8 301 0.0 3.2 0.13 3.43 0.18 98 920.9
20260507100005 8 13 0.0 3.2 0.03 3.38 0.05 98 920.9
20260507094006 8 31 1.6 1.6 0.00 3.38 0.03 98 920.8
20260507093506 8 126 0.0 1.6 0.00 3.40 0.03 98 920.8
20260507093006 8 127 0.0 3.2 0.00 3.40 0.03 98 920.9
20260507091505 8 306 0.0 1.6 0.00 3.40 0.03 98 921.3
20260507091005 8 160 0.0 1.6 0.00 3.40 0.03 98 921.4
20260507090506 8 155 1.6 3.2 0.00 3.40 0.03 98 921.4
20260507090006 8 191 1.6 4.8 0.00 3.40 0.03 98 921.6
20260507084006 8 268 1.6 4.8 0.00 3.40 0.03 98 921.6
20260507083005 8 214 1.6 8.0 0.00 3.40 0.03 98 921.5
20260507081505 8 296 1.6 3.2 0.00 3.40 0.03 98 921.3
20260507081005 8 305 1.6 3.2 0.00 3.40 0.03 98 921.1
20260507080005 8 246 1.6 8.0 0.00 3.40 0.03 98 921.2
20260507074506 9 247 1.6 11.3 0.00 3.40 0.03 98 921.6
20260507074005 9 224 3.2 4.8 0.00 3.40 0.03 98 921.5
20260507073005 9 350 1.6 14.5 0.00 3.40 0.03 98 921.5
20260507071505 10 252 0.0 3.2 0.00 3.40 0.03 98 921.5
20260507071005 10 335 1.6 3.2 0.00 3.40 0.03 98 921.5
20260507070505 10 262 1.6 3.2 0.00 3.40 0.03 98 921.5
20260507070009 10 205 1.6 9.7 0.00 3.40 0.03 98 921.7
20260507064505 10 261 1.6 4.8 0.00 3.40 0.03 98 921.8
20260507064004 10 265 1.6 4.8 0.00 3.40 0.03 98 921.7
20260507063505 10 274 3.2 8.0 0.00 3.40 0.03 98 921.8
20260507063005 10 255 1.6 4.8 0.00 3.40 0.03 98 921.8
20260507061505 10 330 0.0 8.0 0.00 3.40 0.05 98 921.6
20260507060005 10 211 3.2 9.7 0.03 3.40 0.05 98 922.0
20260507054504 10 180 3.2 9.7 0.05 3.40 0.05 98 921.6
20260507053005 11 209 3.2 11.3 0.05 3.40 0.05 98 921.5
20260507051505 11 294 1.6 3.2 0.03 3.40 0.03 98 921.7
20260507051004 11 259 1.6 4.8 0.03 3.40 0.03 98 921.6
20260507050505 11 294 0.0 3.2 0.03 3.38 0.03 98 921.7
20260507050005 11 287 3.2 4.8 0.03 3.38 0.03 98 921.8
20260507044504 11 211 1.6 4.8 0.00 3.38 0.00 98 922.1
20260507043504 11 277 4.8 8.0 0.00 3.35 0.00 98 922.2
20260507043004 11 250 3.2 12.9 0.00 3.35 0.00 98 922.4
20260507041504 12 232 6.4 12.9 0.00 3.35 0.00 98 922.3
20260507041004 12 268 4.8 8.0 0.00 3.35 0.00 98 922.1
20260507040507 12 226 4.8 11.3 0.00 3.35 0.00 98 921.5
20260507040006 12 305 3.2 9.7 0.10 3.38 0.00 98 921.3
20260507034507 12 7 4.8 9.7 0.10 3.38 3.10 98 920.6
20260507034006 12 352 8.0 12.9 0.10 3.38 3.10 98 920.7
20260507033507 12 345 4.8 8.0 0.10 3.38 3.10 98 920.7
20260507033006 12 288 4.8 8.0 0.10 3.38 3.10 98 921.1
20260507031505 12 327 0.0 1.6 0.13 3.38 3.10 97 921.5
20260507030506 12 343 3.2 4.8 0.15 3.38 3.10 97 921.5
20260507030006 12 343 1.6 4.8 0.30 3.25 2.97 97 921.6
20260507024506 12 76 1.6 4.8 0.36 3.25 2.97 96 922.3
20260507024006 12 296 1.6 4.8 0.36 3.25 2.97 96 922.5
20260507023506 12 280 1.6 3.2 0.33 3.25 2.97 96 922.7
20260507023006 12 292 0.0 3.2 0.51 3.25 2.97 96 922.8
20260507021506 12 302 3.2 8.0 0.51 3.23 2.95 96 922.9
20260507021006 12 259 3.2 11.3 0.51 3.23 2.95 96 922.7
20260507020506 12 254 3.2 9.7 0.51 3.23 2.95 96 922.8
20260507020006 12 177 3.2 11.3 0.23 2.95 2.67 96 922.7
20260507014005 12 349 3.2 8.0 0.56 2.92 2.64 96 922.5
20260507013506 12 279 3.2 8.0 0.56 2.92 2.64 96 922.4
20260507013006 12 220 3.2 8.0 0.38 2.74 2.46 96 922.4
20260507011505 13 231 0.0 4.8 0.30 2.74 2.46 95 922.4
20260507011006 13 255 3.2 14.5 0.28 2.72 2.44 95 922.1
20260507010505 13 233 4.8 9.7 0.74 2.72 2.44 95 921.9
20260507010006 13 100 1.6 11.3 0.74 2.72 2.44 95 921.0
20260507003505 14 305 0.0 1.6 0.41 2.36 2.08 93 920.7
20260507001505 15 282 1.6 4.8 0.48 2.36 2.16 92 920.7
20260507001005 15 292 4.8 11.3 0.48 2.36 2.16 92 920.8
20260507000505 15 340 8.0 14.5 0.03 1.91 1.70 91 920.9
20260506234506 17 340 0.0 3.2 0.00 1.91 1.68 88 920.7
20260506233505 17 317 1.6 4.8 0.00 1.91 1.68 88 920.8
20260506233006 17 319 1.6 12.9 0.00 1.91 1.68 87 920.8
20260506231005 17 294 6.4 14.5 0.00 1.91 1.68 85 920.9
20260506230505 17 286 4.8 12.9 0.00 1.91 1.68 85 920.9